Tracking 25612 objects as of 19-May-2022
HD Live streaming from Space Station
objects crossing your sky now

SL-14 DEB

Track SL-14 DEB now!
10-day predictions


NORAD ID: 45287
Int'l Code: 1991-056Z
Perigee: 1,097.6 km
Apogee: 1,203.6 km
Inclination: 82.6 °
Period: 108.2 minutes
Semi major axis: 7521 km
RCS: Unknown
Launch date: August 15, 1991
Source: Commonwealth of Independent States (former USSR) (CIS)
Launch site: PLESETSK MISSILE AND SPACE COMPLEX (PKMTR)

Note: This is SATELLITE DEBRIS
aabbcc
Your satellite tracking list
Your tracking list is empty




NASA's NSSDC Master Catalog

Two Line Element Set (TLE):
1 45287U 91056Z   22138.61364783  .00000663  00000-0  13554-2 0  9996
2 45287  82.5696  99.4952 0070470 137.5892 223.0715 13.30872509109104
Source of the keplerian elements: AFSPC